User: anonymous   Login
Location: Caltech
(34.1382°N, 118.1253°W)
Time: 08:16:52
(UTC-07:00)
Language:

Uribyol 2 - Orbit

View from above orbital plane
View from above orbital plane
View from above satellite
View from above satellite

Ground track
Ground track

The orbit data is extracted from the following two-line orbital elements,

1 22828U 93061F   14297.47118854  .00000298  00000-0  13170-3 0  7444
2 22828 098.6634 242.4028 0009023 237.6568 122.3742 14.30365650 67729
Epoch (UTC): 24 October 2014 11:18:30
Eccentricity: 0.0009023
inclination: 98.6634°
perigee height: 784 km
apogee height: 797 km
right ascension of ascending node: 242.4028°
argument of perigee: 237.6568°
revolutions per day: 14.30365650
mean anomaly at epoch: 122.3742°
orbit number at epoch: 6772

The dashed part of the orbit path shows where the satellite is in the earth's shadow,  

DLR